Time,TemperatureF,DewpointF,PressureIn,WindDirection,WindDirectionDegrees,WindSpeedMPH,WindSpeedGustMPH,Humidity,HourlyPrecipIn,Conditions,Clouds,dailyrainin,SoftwareType,DateUTC
2013-03-30 00:05:00,46.3,27.0,30.22,North,5,0.0,1.0,48,0.00,,,0.00,weatherlink.com 1.10,2013-03-30 04:05:00,
2013-03-30 00:20:00,45.8,26.0,30.22,North,5,0.0,0.0,46,0.00,,,0.00,weatherlink.com 1.10,2013-03-30 04:20:00,
2013-03-30 00:35:00,45.5,27.0,30.21,North,5,0.0,0.0,48,0.00,,,0.00,weatherlink.com 1.10,2013-03-30 04:35:00,
2013-03-30 00:50:00,44.7,25.0,30.21,North,5,0.0,1.0,47,0.00,,,0.00,weatherlink.com 1.10,2013-03-30 04:50:00,
2013-03-30 01:06:00,44.3,27.0,30.21,North,5,0.0,1.0,50,0.00,,,0.00,weatherlink.com 1.10,2013-03-30 05:06:00,
2013-03-30 01:21:00,43.6,26.0,30.21,North,5,0.0,0.0,51,0.00,,,0.00,weatherlink.com 1.10,2013-03-30 05:21:00,
2013-03-30 01:36:00,42.5,25.0,30.21,North,5,0.0,0.0,51,0.00,,,0.00,weatherlink.com 1.10,2013-03-30 05:36:00,
2013-03-30 01:51:00,42.2,26.0,30.21,North,5,0.0,0.0,52,0.00,,,0.00,weatherlink.com 1.10,2013-03-30 05:51:00,
2013-03-30 02:06:00,41.7,26.0,30.20,North,5,0.0,0.0,55,0.00,,,0.00,weatherlink.com 1.10,2013-03-30 06:06:00,
2013-03-30 02:21:00,41.2,27.0,30.20,North,5,0.0,0.0,57,0.00,,,0.00,weatherlink.com 1.10,2013-03-30 06:21:00,
2013-03-30 03:06:00,39.4,26.0,30.21,North,5,0.0,0.0,59,0.00,,,0.00,weatherlink.com 1.10,2013-03-30 07:06:00,
2013-03-30 03:21:00,39.8,27.0,30.20,North,5,0.0,2.0,60,0.00,,,0.00,weatherlink.com 1.10,2013-03-30 07:21:00,
2013-03-30 03:36:00,39.8,28.0,30.20,North,5,0.0,1.0,62,0.00,,,0.00,weatherlink.com 1.10,2013-03-30 07:36:00,
2013-03-30 04:06:00,38.7,27.0,30.20,North,5,0.0,0.0,62,0.00,,,0.00,weatherlink.com 1.10,2013-03-30 08:06:00,
2013-03-30 04:21:00,38.9,28.0,30.20,North,5,0.0,0.0,64,0.00,,,0.00,weatherlink.com 1.10,2013-03-30 08:21:00,
2013-03-30 04:36:00,39.4,27.0,30.20,North,5,0.0,0.0,62,0.00,,,0.00,weatherlink.com 1.10,2013-03-30 08:36:00,
2013-03-30 04:51:00,39.8,27.0,30.20,North,5,0.0,1.0,61,0.00,,,0.00,weatherlink.com 1.10,2013-03-30 08:51:00,
2013-03-30 05:06:00,40.3,28.0,30.20,North,5,0.0,0.0,61,0.00,,,0.00,weatherlink.com 1.10,2013-03-30 09:06:00,
2013-03-30 05:21:00,40.1,28.0,30.20,North,5,0.0,0.0,63,0.00,,,0.00,weatherlink.com 1.10,2013-03-30 09:21:00,
2013-03-30 05:36:00,39.8,28.0,30.20,North,5,0.0,0.0,64,0.00,,,0.00,weatherlink.com 1.10,2013-03-30 09:36:00,
2013-03-30 06:06:00,39.4,29.0,30.21,East,90,0.0,1.0,66,0.00,,,0.00,weatherlink.com 1.10,2013-03-30 10:06:00,
2013-03-30 06:21:00,38.9,28.0,30.21,East,90,0.0,0.0,66,0.00,,,0.00,weatherlink.com 1.10,2013-03-30 10:21:00,
2013-03-30 06:36:00,38.6,29.0,30.21,East,90,0.0,1.0,68,0.00,,,0.00,weatherlink.com 1.10,2013-03-30 10:36:00,
2013-03-30 06:51:00,38.3,29.0,30.22,East,90,0.0,0.0,68,0.00,,,0.00,weatherlink.com 1.10,2013-03-30 10:51:00,
2013-03-30 07:06:00,37.6,29.0,30.23,East,90,0.0,0.0,70,0.00,,,0.00,weatherlink.com 1.10,2013-03-30 11:06:00,
2013-03-30 07:21:00,37.4,29.0,30.23,East,90,0.0,0.0,71,0.00,,,0.00,weatherlink.com 1.10,2013-03-30 11:21:00,
2013-03-30 07:36:00,37.5,29.0,30.23,East,92,0.0,1.0,70,0.00,,,0.00,weatherlink.com 1.10,2013-03-30 11:36:00,
2013-03-30 07:51:00,37.9,29.0,30.23,East,92,0.0,0.0,70,0.00,,,0.00,weatherlink.com 1.10,2013-03-30 11:51:00,
2013-03-30 08:21:00,38.9,29.0,30.24,East,92,0.0,0.0,69,0.00,,,0.00,weatherlink.com 1.10,2013-03-30 12:21:00,
2013-03-30 08:36:00,40.2,30.0,30.25,East,92,0.0,0.0,68,0.00,,,0.00,weatherlink.com 1.10,2013-03-30 12:36:00,
2013-03-30 08:51:00,42.1,31.0,30.25,North,355,1.0,3.0,66,0.00,,,0.00,weatherlink.com 1.10,2013-03-30 12:51:00,
2013-03-30 09:06:00,44.3,31.0,30.25,WNW,286,1.0,3.0,61,0.00,,,0.00,weatherlink.com 1.10,2013-03-30 13:06:00,
2013-03-30 09:21:00,46.1,32.0,30.25,WNW,301,0.0,4.0,58,0.00,,,0.00,weatherlink.com 1.10,2013-03-30 13:21:00,
2013-03-30 09:36:00,48.2,32.0,30.25,WNW,301,0.0,4.0,53,0.00,,,0.00,weatherlink.com 1.10,2013-03-30 13:36:00,
2013-03-30 09:52:00,51.4,31.0,30.25,North,5,2.0,3.0,45,0.00,,,0.00,weatherlink.com 1.10,2013-03-30 13:52:00,
2013-03-30 10:07:00,53.9,31.0,30.24,ESE,117,1.0,3.0,42,0.00,,,0.00,weatherlink.com 1.10,2013-03-30 14:07:00,
2013-03-30 10:22:00,56.4,29.0,30.24,ENE,78,0.0,5.0,35,0.00,,,0.00,weatherlink.com 1.10,2013-03-30 14:22:00,
2013-03-30 10:37:00,57.6,29.0,30.24,East,98,1.0,7.0,33,0.00,,,0.00,weatherlink.com 1.10,2013-03-30 14:37:00,
2013-03-30 10:52:00,58.7,29.0,30.24,East,81,2.0,7.0,32,0.00,,,0.00,weatherlink.com 1.10,2013-03-30 14:52:00,
2013-03-30 11:07:00,59.5,28.0,30.23,NW,304,3.0,5.0,30,0.00,,,0.00,weatherlink.com 1.10,2013-03-30 15:07:00,
2013-03-30 11:37:00,61.8,29.0,30.22,WSW,238,3.0,7.0,29,0.00,,,0.00,weatherlink.com 1.10,2013-03-30 15:37:00,
2013-03-30 11:52:00,61.5,28.0,30.20,North,350,6.0,7.0,28,0.00,,,0.00,weatherlink.com 1.10,2013-03-30 15:52:00,
2013-03-30 12:07:00,61.2,27.0,30.19,SW,225,1.0,6.0,27,0.00,,,0.00,weatherlink.com 1.10,2013-03-30 16:07:00,
2013-03-30 12:22:00,63.4,28.0,30.19,SSW,193,6.0,7.0,26,0.00,,,0.00,weatherlink.com 1.10,2013-03-30 16:22:00,
2013-03-30 12:37:00,62.4,28.0,30.18,SW,220,2.0,7.0,27,0.00,,,0.00,weatherlink.com 1.10,2013-03-30 16:37:00,
2013-03-30 12:52:00,63.1,29.0,30.17,ESE,119,1.0,6.0,28,0.00,,,0.00,weatherlink.com 1.10,2013-03-30 16:52:00,
2013-03-30 13:07:00,64.3,28.0,30.16,SW,223,2.0,8.0,25,0.00,,,0.00,weatherlink.com 1.10,2013-03-30 17:07:00,
2013-03-30 13:22:00,64.1,27.0,30.16,ESE,120,1.0,9.0,25,0.00,,,0.00,weatherlink.com 1.10,2013-03-30 17:22:00,
2013-03-30 13:37:00,64.7,27.0,30.16,SSE,153,0.0,6.0,24,0.00,,,0.00,weatherlink.com 1.10,2013-03-30 17:37:00,
2013-03-30 13:52:00,65.2,26.0,30.15,SSW,199,0.0,8.0,23,0.00,,,0.00,weatherlink.com 1.10,2013-03-30 17:52:00,
2013-03-30 14:07:00,66.6,28.0,30.14,WNW,292,5.0,6.0,23,0.00,,,0.00,weatherlink.com 1.10,2013-03-30 18:07:00,
2013-03-30 14:22:00,66.4,28.0,30.13,North,9,3.0,7.0,24,0.00,,,0.00,weatherlink.com 1.10,2013-03-30 18:22:00,
2013-03-30 14:37:00,66.2,27.0,30.13,SSE,162,4.0,10.0,23,0.00,,,0.00,weatherlink.com 1.10,2013-03-30 18:37:00,
2013-03-30 14:52:00,64.7,27.0,30.12,ESE,123,1.0,8.0,24,0.00,,,0.00,weatherlink.com 1.10,2013-03-30 18:52:00,
2013-03-30 15:07:00,66.3,29.0,30.12,South,181,2.0,5.0,25,0.00,,,0.00,weatherlink.com 1.10,2013-03-30 19:07:00,
2013-03-30 15:22:00,67.2,28.0,30.11,South,185,7.0,8.0,23,0.00,,,0.00,weatherlink.com 1.10,2013-03-30 19:22:00,
2013-03-30 15:37:00,67.0,28.0,30.10,ENE,69,2.0,8.0,23,0.00,,,0.00,weatherlink.com 1.10,2013-03-30 19:37:00,
2013-03-30 15:52:00,67.0,27.0,30.10,SW,219,0.0,6.0,22,0.00,,,0.00,weatherlink.com 1.10,2013-03-30 19:52:00,
2013-03-30 16:07:00,68.4,27.0,30.09,NW,311,3.0,6.0,21,0.00,,,0.00,weatherlink.com 1.10,2013-03-30 20:07:00,
2013-03-30 16:23:00,67.7,27.0,30.09,SW,217,1.0,6.0,22,0.00,,,0.00,weatherlink.com 1.10,2013-03-30 20:23:00,
2013-03-30 16:53:00,66.6,28.0,30.07,SW,218,3.0,11.0,23,0.00,,,0.00,weatherlink.com 1.10,2013-03-30 20:53:00,
2013-03-30 17:08:00,65.8,27.0,30.08,South,187,2.0,9.0,23,0.00,,,0.00,weatherlink.com 1.10,2013-03-30 21:08:00,
2013-03-30 17:23:00,65.9,26.0,30.07,WNW,284,2.0,6.0,22,0.00,,,0.00,weatherlink.com 1.10,2013-03-30 21:23:00,
2013-03-30 17:38:00,65.7,25.0,30.08,SW,223,1.0,7.0,21,0.00,,,0.00,weatherlink.com 1.10,2013-03-30 21:38:00,
2013-03-30 17:53:00,65.4,25.0,30.07,SE,144,5.0,6.0,22,0.00,,,0.00,weatherlink.com 1.10,2013-03-30 21:53:00,
2013-03-30 18:08:00,63.9,25.0,30.07,WSW,248,2.0,6.0,23,0.00,,,0.00,weatherlink.com 1.10,2013-03-30 22:08:00,
2013-03-30 18:23:00,63.5,26.0,30.07,South,184,2.0,4.0,24,0.00,,,0.00,weatherlink.com 1.10,2013-03-30 22:23:00,
2013-03-30 18:38:00,63.1,27.0,30.07,West,259,1.0,3.0,25,0.00,,,0.00,weatherlink.com 1.10,2013-03-30 22:38:00,
2013-03-30 18:53:00,62.5,27.0,30.07,SE,146,0.0,3.0,26,0.00,,,0.00,weatherlink.com 1.10,2013-03-30 22:53:00,
2013-03-30 19:08:00,61.6,27.0,30.08,South,180,1.0,6.0,27,0.00,,,0.00,weatherlink.com 1.10,2013-03-30 23:08:00,
2013-03-30 19:23:00,60.9,27.0,30.08,ESE,116,1.0,4.0,27,0.00,,,0.00,weatherlink.com 1.10,2013-03-30 23:23:00,
2013-03-30 19:38:00,60.2,28.0,30.08,ESE,118,1.0,2.0,29,0.00,,,0.00,weatherlink.com 1.10,2013-03-30 23:38:00,
2013-03-30 19:53:00,59.4,29.0,30.08,ESE,118,0.0,1.0,31,0.00,,,0.00,weatherlink.com 1.10,2013-03-30 23:53:00,
2013-03-30 20:08:00,58.3,28.0,30.08,ESE,118,0.0,1.0,31,0.00,,,0.00,weatherlink.com 1.10,2013-03-31 00:08:00,
2013-03-30 20:23:00,57.1,28.0,30.08,ESE,118,0.0,1.0,33,0.00,,,0.00,weatherlink.com 1.10,2013-03-31 00:23:00,
2013-03-30 20:39:00,56.2,28.0,30.08,ESE,118,1.0,2.0,34,0.00,,,0.00,weatherlink.com 1.10,2013-03-31 00:39:00,
2013-03-30 20:53:00,56.0,28.0,30.09,ESE,118,0.0,1.0,34,0.00,,,0.00,weatherlink.com 1.10,2013-03-31 00:53:00,
2013-03-30 21:08:00,55.7,28.0,30.08,ESE,118,0.0,1.0,35,0.00,,,0.00,weatherlink.com 1.10,2013-03-31 01:08:00,
2013-03-30 21:23:00,55.1,28.0,30.08,ESE,118,0.0,2.0,35,0.00,,,0.00,weatherlink.com 1.10,2013-03-31 01:23:00,
2013-03-30 21:38:00,54.6,29.0,30.08,ESE,118,2.0,2.0,37,0.00,,,0.00,weatherlink.com 1.10,2013-03-31 01:38:00,
2013-03-30 21:53:00,54.2,29.0,30.08,ESE,118,0.0,1.0,38,0.00,,,0.00,weatherlink.com 1.10,2013-03-31 01:53:00,
2013-03-30 22:08:00,54.1,29.0,30.08,ESE,118,1.0,2.0,38,0.00,,,0.00,weatherlink.com 1.10,2013-03-31 02:08:00,
2013-03-30 22:23:00,54.1,29.0,30.08,ESE,118,1.0,2.0,38,0.00,,,0.00,weatherlink.com 1.10,2013-03-31 02:23:00,
2013-03-30 22:38:00,54.0,28.0,30.08,ESE,118,2.0,2.0,37,0.00,,,0.00,weatherlink.com 1.10,2013-03-31 02:38:00,
2013-03-30 22:53:00,53.9,29.0,30.08,ESE,118,1.0,2.0,38,0.00,,,0.00,weatherlink.com 1.10,2013-03-31 02:53:00,
2013-03-30 23:08:00,53.5,30.0,30.07,ESE,118,0.0,2.0,40,0.00,,,0.00,weatherlink.com 1.10,2013-03-31 03:08:00,
2013-03-30 23:23:00,52.7,29.0,30.07,ESE,117,0.0,1.0,41,0.00,,,0.00,weatherlink.com 1.10,2013-03-31 03:23:00,
2013-03-30 23:38:00,52.3,31.0,30.07,ESE,117,0.0,1.0,44,0.00,,,0.00,weatherlink.com 1.10,2013-03-31 03:38:00,
2013-03-30 23:53:00,51.0,30.0,30.07,ESE,117,0.0,0.0,44,0.00,,,0.00,weatherlink.com 1.10,2013-03-31 03:53:00,